Dewpoint
55 56 56 56 56 56 55 55 55 55 56 56 56 56 56 55 56 56 56 56 56 56 55 55 55 56 56 57 56 56 56 54 52 51 47 39 48 54 64 62 64 64 66 63 61 57 55 56 58 54 51 56 54 57 65 67 68 68 61 58 55 58 58 59 59 59 61 61 63 64 65 62 61 63 66 66 64 64 64 63 64 64 65 66 67 67 68 68
55 56 55 56 55 55 56 56 56 56 56 56 56 56 56 55 55 56 56 56 56 55 55 55 55 55 56 56 56 57 55 54 50 49 45 47 57 59 63 64 67 64 68 60 55 51 50 48 52 48 51 54 57 57 63 65 68 63 60 57 55 60 63 64 62 62 61 62 63 64 66 63 62 64 65 63 62 62 62 63 64 64 65 66 67 67 67 67
56 55 55 55 55 55 55 56 56 56 55 55 55 55 55 55 56 56 56 56 55 55 55 55 55 56 56 56 56 58 55 50 51 45 36 59 60 60 63 66 69 67 59 57 53 50 44 44 47 47 51 54 56 58 61 65 65 65 60 56 58 63 64 64 63 63 65 64 63 64 66 64 63 65 65 62 61 61 61 62 63 63 64 65 66 67 67 67
55 55 55 55 55 55 55 55 55 55 55 55 55 55 55 55 55 56 56 56 55 55 55 55 55 55 56 56 57 56 53 51 41 37 47 64 64 66 65 66 70 67 49 56 51 47 48 47 46 48 52 56 56 61 60 66 63 65 61 58 60 64 62 64 65 65 64 64 64 65 65 63 64 66 66 61 60 60 61 62 62 63 64 65 66 66 66 66
55 55 55 55 55 55 55 56 56 55 55 56 55 55 55 55 55 55 55 55 55 55 55 55 55 56 56 57 58 55 51 30 25 45 49 71 66 68 68 68 70 63 48 45 49 49 48 47 47 54 55 54 58 60 62 65 63 64 61 62 62 65 64 66 66 65 64 66 65 64 62 62 66 66 64 61 58 59 61 62 64 64 65 65 66 66 66 66
55 56 55 55 55 55 55 55 55 55 55 55 55 55 55 55 55 55 55 55 55 55 56 56 55 56 56 57 56 55 43 16 33 33 70 73 68 68 68 70 69 57 42 45 46 47 49 51 52 54 54 55 55 58 60 64 64 59 60 61 61 62 64 66 65 65 66 65 64 63 64 64 65 64 66 63 60 62 63 64 64 65 65 66 66 66 66 66
55 55 55 55 55 55 55 55 55 55 55 55 55 55 55 55 55 54 55 55 55 55 55 55 56 56 56 58 54 49 31 28 37 33 69 73 67 67 68 68 68 48 39 40 44 47 47 50 53 53 50 52 52 57 60 63 63 60 60 60 61 64 64 66 65 66 65 65 65 66 64 64 63 61 66 64 66 63 64 64 65 65 65 66 66 66 66 66
55 55 55 55 55 55 55 55 55 55 55 55 55 55 55 55 55 55 55 55 55 55 55 56 56 56 57 54 48 29 32 19 19 28 73 69 65 67 67 60 53 44 36 37 44 46 47 49 49 50 49 48 45 51 56 62 63 59 58 60 61 65 65 65 65 65 66 66 66 65 63 64 65 63 65 64 65 62 64 64 65 65 65 65 66 66 66 66
55 55 55 55 55 55 55 55 55 55 55 55 55 55 55 55 55 55 55 54 55 55 55 56 56 57 57 53 35 20 8 27 37 62 70 63 65 64 57 51 46 39 36 34 41 46 47 47 49 51 50 49 50 49 53 59 58 61 60 61 64 64 64 65 65 65 66 67 66 64 64 64 64 66 65 66 65 62 64 64 65 65 65 65 65 66 66 66
55 55 55 55 55 55 55 55 55 55 55 55 55 55 54 54 54 54 55 55 55 55 55 56 56 57 56 52 30 6 5 42 63 64 64 61 64 61 55 50 41 36 33 32 34 45 48 46 50 50 49 49 47 45 53 56 51 61 61 63 64 63 63 65 64 66 67 66 67 63 63 63 65 65 60 64 64 63 64 64 65 65 64 65 65 65 66 65
55 55 55 55 55 55 55 55 55 55 55 55 55 55 55 55 54 54 54 55 55 55 55 56 56 56 50 51 8 3 16 51 60 60 60 60 57 53 52 44 39 34 32 32 32 39 46 47 49 49 49 48 47 38 57 56 57 60 63 63 63 64 64 64 65 65 65 64 67 64 63 64 64 64 61 63 62 63 63 64 64 64 65 65 65 65 66 65
55 55 55 55 55 55 55 55 55 55 55 55 55 54 54 55 54 54 54 55 55 55 55 56 56 56 53 47 33 16 32 51 57 57 58 54 51 50 51 44 37 34 32 31 31 31 34 46 47 50 47 49 46 40 36 51 52 61 61 61 61 62 62 63 63 64 65 64 66 65 61 60 61 62 64 62 61 62 63 63 64 64 64 64 65 65 65 65
55 55 55 55 55 55 55 55 55 55 55 55 54 54 54 54 54 54 54 54 55 55 56 57 57 55 52 26 30 37 38 41 53 54 52 45 46 45 49 47 38 35 34 32 31 31 31 36 46 46 49 47 44 35 32 33 47 60 60 60 59 59 59 62 64 65 64 65 65 65 55 57 60 62 63 64 61 62 62 63 63 64 64 64 64 64 64 64
56 55 55 55 55 55 55 55 55 55 55 54 54 54 54 54 54 54 54 54 55 56 57 58 55 54 44 21 20 33 36 38 52 51 52 48 44 43 44 45 42 39 37 34 37 30 31 34 42 44 47 43 41 38 30 32 58 57 59 59 57 55 56 61 62 63 62 65 66 65 55 57 61 63 63 67 61 61 61 62 62 62 62 62 62 63 63 63
55 55 55 55 55 55 55 55 55 54 54 54 54 54 54 53 54 54 55 55 56 57 58 58 55 51 41 33 35 39 57 40 46 47 49 42 38 42 39 43 43 41 37 34 36 40 34 40 41 38 36 40 42 36 29 31 43 57 54 53 56 55 57 61 63 62 60 62 65 63 55 57 61 62 64 66 62 61 61 61 61 61 61 61 61 62 62 62
56 56 55 55 55 55 55 55 55 54 54 54 53 53 54 54 55 56 56 56 58 59 58 53 54 52 37 32 27 44 45 39 37 42 47 38 33 34 39 41 39 40 37 35 34 33 37 37 36 34 34 31 30 28 29 47 50 53 51 51 53 56 57 59 61 64 62 62 63 63 57 59 60 62 64 66 61 60 60 60 60 60 60 60 61 61 61 61
56 56 56 55 55 55 55 55 55 54 54 53 53 53 53 54 56 56 57 58 58 58 55 49 52 54 19 21 30 32 39 42 40 39 43 39 31 33 31 30 31 33 33 30 33 33 34 35 35 37 29 28 28 28 26 27 40 50 45 51 53 55 56 55 60 62 62 62 59 62 60 59 61 61 64 65 63 60 59 59 59 59 59 60 60 60 60 61
55 55 55 55 55 55 55 55 55 54 54 53 53 52 52 55 57 58 57 57 57 56 56 56 50 40 22 19 20 33 36 34 37 37 38 36 30 32 30 29 27 27 27 28 36 31 34 32 29 27 28 27 27 27 26 25 45 51 45 50 52 56 56 56 56 59 61 62 58 59 60 60 61 62 65 65 65 61 58 59 59 58 59 59 59 59 60 60
55 55 55 55 55 55 55 55 54 54 53 53 53 55 54 56 54 52 53 55 41 33 24 36 35 27 4 16 21 30 30 33 37 34 32 32 34 34 41 31 26 28 31 32 33 30 31 28 29 28 25 25 25 26 27 29 41 51 47 51 53 55 55 55 58 60 61 60 59 58 58 59 60 61 64 65 64 63 58 58 58 58 58 59 58 58 59 59
56 55 55 55 55 55 55 54 54 53 52 51 49 53 51 40 39 41 49 48 43 33 31 31 36 35 32 30 30 31 31 35 32 34 34 39 31 31 34 33 31 32 33 35 32 30 28 27 25 25 25 25 26 26 28 27 24 28 42 49 52 53 54 57 59 61 61 58 58 58 59 60 60 61 62 62 64 63 58 58 58 58 58 58 58 58 58 58
55 55 55 55 54 54 54 54 53 52 52 50 49 44 32 38 32 31 36 44 44 42 37 35 35 31 29 33 34 35 33 35 33 32 35 44 32 29 30 33 30 30 30 32 28 32 28 26 26 26 26 25 25 26 27 24 22 24 43 48 49 50 51 56 58 60 60 57 58 60 58 59 60 61 62 63 63 61 58 57 57 58 58 58 58 57 57 57
55 55 55 54 54 54 54 53 52 52 51 49 49 35 35 40 37 35 33 30 31 39 41 38 39 35 37 36 36 37 38 35 33 33 34 34 33 32 31 29 30 30 29 25 28 26 28 26 27 26 26 25 24 24 24 22 20 22 21 47 49 50 56 58 59 59 57 57 57 58 57 59 60 61 61 62 62 64 64 61 58 58 58 58 58 57 57 55
55 55 55 54 54 53 53 52 52 51 49 49 44 40 37 38 41 39 35 31 30 35 40 40 38 38 37 40 40 36 35 35 31 32 32 34 32 33 29 27 30 29 24 26 27 27 28 25 26 27 25 24 23 22 20 18 18 18 34 46 48 51 52 53 57 58 57 58 58 58 58 59 61 62 61 62 64 64 65 64 64 61 58 58 58 57 57 54
55 55 55 54 54 53 52 51 49 50 49 45 43 42 41 41 39 37 32 30 28 31 35 39 37 39 38 32 36 37 35 36 32 30 43 32 30 33 28 25 25 25 24 24 25 24 25 24 25 26 25 24 24 22 19 19 18 18 21 31 42 48 49 55 55 57 56 57 59 57 56 55 59 58 60 62 64 64 64 63 63 63 62 59 59 58 57 54
55 55 55 54 53 53 51 50 49 49 46 46 45 45 45 44 42 39 31 27 23 21 30 30 39 36 37 37 40 34 34 29 31 31 42 32 31 30 29 29 25 24 24 24 22 22 21 23 23 22 24 23 23 23 20 18 18 16 17 21 28 49 55 56 56 54 54 53 57 55 50 52 55 58 59 61 62 61 62 62 62 62 61 62 58 56 55 55
55 55 54 54 53 52 51 43 42 45 45 40 38 40 42 42 41 34 29 24 17 18 24 25 27 24 25 20 34 30 28 27 29 30 38 33 45 30 31 28 28 25 26 24 22 23 23 23 22 21 21 22 22 22 22 18 16 17 20 21 33 55 56 55 54 53 50 49 53 55 48 48 56 56 58 60 60 60 62 62 61 62 61 61 59 57 53 54
54 54 54 53 53 51 38 34 41 45 36 37 39 42 42 42 43 34 29 23 19 21 22 26 22 19 19 25 25 28 23 24 25 34 31 46 32 38 29 28 28 29 28 28 25 21 22 22 20 20 21 20 20 20 20 18 16 17 18 24 36 55 55 54 54 52 51 55 54 55 53 48 49 53 58 60 60 59 60 60 61 62 61 61 61 58 54 53
54 54 53 52 51 51 43 46 44 36 34 37 44 43 43 46 39 34 29 19 15 22 19 18 20 20 18 16 25 24 25 21 25 26 32 34 33 27 27 26 27 26 25 25 20 23 21 21 20 19 21 19 18 20 22 18 17 19 24 24 45 54 54 54 53 52 53 52 51 53 53 46 46 50 58 60 58 58 58 59 60 61 61 61 62 61 56 53
54 53 52 52 51 50 50 48 43 36 37 44 45 44 44 42 34 31 26 17 18 19 20 18 18 18 17 16 20 19 18 20 15 18 27 30 28 26 25 25 26 25 24 24 23 22 19 21 20 20 18 17 19 19 20 18 18 19 35 46 39 51 52 52 50 53 52 49 48 52 52 43 40 51 56 59 57 57 57 58 59 60 61 60 62 63 62 56
53 52 52 52 49 49 50 50 46 42 48 47 45 44 46 39 33 30 20 11 17 14 19 17 14 13 15 13 14 15 21 20 22 26 26 29 25 19 22 27 24 24 24 18 20 21 20 42 41 18 17 18 18 18 19 19 19 34 46 45 45 46 45 47 47 50 48 44 47 52 52 45 40 51 54 55 55 56 57 58 59 60 60 60 61 62 63 61
52 52 51 51 45 47 49 35 37 46 48 46 44 41 39 36 34 24 14 10 21 15 16 14 12 15 12 11 10 14 18 17 17 26 24 23 23 21 21 19 20 20 19 19 15 15 16 18 23 29 29 21 18 19 20 19 19 26 29 42 44 44 44 44 45 48 43 40 43 50 52 45 40 42 54 56 58 58 57 56 58 59 59 59 60 62 62 64
51 50 51 49 49 51 37 31 36 42 45 46 43 36 35 29 18 17 17 24 12 9 10 11 16 14 14 15 14 13 13 12 16 25 23 20 20 23 18 18 19 18 19 18 17 14 12 15 16 20 47 17 18 16 16 19 19 18 32 43 42 38 42 40 41 41 39 41 41 47 51 48 47 44 51 55 57 59 58 57 57 58 59 59 59 61 62 64
50 50 50 50 52 48 49 45 48 47 47 51 40 35 26 19 13 19 23 19 12 14 9 14 13 14 13 12 12 15 15 10 13 20 20 16 20 19 18 18 20 19 19 25 14 13 12 17 19 18 22 31 16 14 18 16 18 17 22 33 39 38 38 37 35 37 34 37 45 50 51 47 47 47 54 55 56 57 59 59 58 59 59 59 59 61 62 63
50 50 47 50 51 49 50 54 50 47 45 48 36 31 20 15 16 47 30 22 11 14 16 10 13 11 12 10 12 13 12 12 15 15 16 16 14 15 14 13 16 14 15 23 11 11 12 13 15 21 16 24 17 16 19 19 19 17 23 30 35 38 36 34 34 36 37 39 45 49 45 44 44 44 54 55 57 58 59 60 60 60 60 59 63 65 64 64
50 48 48 51 51 51 51 50 49 48 43 37 27 27 18 18 23 19 16 15 13 14 14 14 12 11 9 11 11 12 11 11 14 14 12 13 12 14 15 11 15 18 16 12 18 23 11 16 18 21 23 26 19 20 24 24 21 22 26 29 35 38 39 37 35 35 36 41 42 45 44 49 48 54 56 58 59 60 60 61 61 61 62 62 62 63 64 65
49 48 49 47 51 49 50 51 48 45 37 30 26 24 19 21 17 15 14 18 15 15 14 12 11 10 11 12 17 12 10 11 9 13 12 14 15 16 17 13 15 13 9 12 24 16 25 18 18 21 22 20 24 30 27 25 20 26 26 23 24 30 36 39 43 42 41 41 40 44 44 47 52 52 57 58 59 60 61 61 61 62 61 61 61 63 64 65
50 49 38 43 46 52 50 48 47 44 39 33 24 21 25 29 21 18 43 17 13 16 14 11 12 11 12 11 14 14 11 9 11 11 12 15 16 17 16 16 17 18 11 10 11 20 16 16 18 19 17 20 25 29 27 28 25 27 26 24 31 32 34 35 34 37 36 35 36 45 45 46 45 43 54 57 57 59 60 61 62 62 62 61 61 63 64 65
50 50 50 53 50 48 49 47 43 39 36 31 36 50 43 17 23 17 19 18 15 17 17 15 16 13 16 15 13 15 15 8 10 12 15 18 16 18 17 18 19 19 19 17 14 21 18 15 17 19 19 18 22 24 23 24 26 25 25 30 26 28 27 31 38 36 34 35 38 42 45 45 45 45 52 55 56 58 59 60 61 61 62 62 63 65 66 66
49 38 35 36 44 48 48 47 40 40 32 29 31 25 37 27 23 21 22 19 17 18 17 18 16 19 15 15 16 16 16 9 14 16 17 17 16 18 17 19 19 19 22 19 18 25 24 16 19 21 19 19 21 25 24 22 19 22 23 20 25 31 32 31 34 38 35 37 38 39 43 41 47 47 52 55 57 58 59 60 61 62 63 63 64 64 65 65
38 36 34 38 42 48 51 45 39 32 31 24 26 33 29 19 20 20 20 22 17 17 20 19 20 18 19 21 16 16 18 18 16 17 18 17 16 18 18 19 19 19 22 25 21 23 22 23 17 18 20 19 19 21 23 21 17 18 18 23 21 29 33 27 29 40 39 39 36 38 38 43 46 51 54 57 57 59 60 60 60 61 62 63 64 64 64 65
46 37 37 40 47 48 37 33 30 30 26 29 32 27 26 25 21 19 20 20 19 21 19 19 20 17 19 19 17 20 20 21 19 18 17 16 17 17 20 18 22 18 21 20 20 24 22 23 20 24 16 17 17 21 18 21 19 17 17 19 20 21 23 27 24 29 43 39 37 38 37 40 47 55 57 58 59 59 60 60 60 61 62 63 64 64 64 64
37 32 33 41 46 36 31 28 30 32 27 26 26 24 21 48 20 19 20 21 21 20 23 21 22 21 22 22 20 21 22 21 20 19 19 15 18 16 16 19 20 21 18 18 19 22 27 29 27 20 18 17 18 19 26 22 20 19 17 17 21 23 24 24 21 30 42 43 45 40 37 40 51 57 58 58 58 59 60 60 60 61 62 62 62 63 64 64
40 34 39 47 46 33 30 29 44 40 27 28 32 19 20 21 21 21 21 23 20 22 22 20 20 22 22 21 22 24 21 19 21 19 19 21 17 17 20 18 19 18 17 15 23 23 46 28 26 30 31 34 28 23 24 26 19 18 18 18 16 18 21 22 27 35 41 42 40 37 37 42 54 58 58 58 59 59 60 60 60 61 61 61 62 62 63 64
42 42 43 47 42 31 28 25 26 24 35 36 21 20 21 23 22 22 22 25 24 20 22 22 23 23 25 25 26 29 27 19 22 21 21 22 17 19 22 22 22 23 20 20 21 23 24 28 28 26 25 25 28 29 23 24 23 25 22 23 29 38 37 34 42 43 41 42 41 37 35 41 54 58 58 58 58 58 58 59 59 59 60 60 61 62 62 63
45 44 47 49 46 31 28 27 26 27 28 28 21 18 19 22 22 24 25 24 24 25 27 27 24 24 24 27 29 29 29 20 25 29 21 28 29 32 20 22 34 36 39 33 49 41 27 32 32 23 18 15 17 19 20 21 22 23 25 19 30 39 38 37 38 39 34 41 40 37 37 47 56 57 57 57 57 57 57 57 58 58 59 59 60 61 62 62
39 29 36 39 41 32 34 33 28 27 29 31 23 20 21 20 21 22 25 25 25 26 31 31 31 28 29 30 31 31 31 29 28 29 31 29 31 29 25 25 31 37 52 47 51 39 32 38 34 32 26 24 32 30 28 39 25 17 20 21 19 35 41 39 39 35 31 39 41 40 43 49 52 55 55 56 56 56 56 56 56 56 57 58 59 60 61 62
43 38 39 37 41 33 33 28 29 27 23 31 23 21 20 20 22 21 22 25 24 26 30 31 31 31 32 30 33 30 32 32 32 28 28 31 30 30 31 30 26 42 52 43 46 34 34 28 31 39 32 29 33 35 28 32 24 18 17 20 22 32 39 37 32 30 38 41 36 41 49 50 52 54 55 55 55 55 55 55 55 56 56 57 58 60 61 62
34 38 44 45 26 31 28 27 35 30 31 30 27 24 21 20 19 23 19 21 25 29 30 31 27 29 32 33 32 29 31 35 31 28 30 30 31 26 25 27 25 37 39 25 38 32 30 29 32 33 29 27 26 26 23 19 18 19 20 27 33 28 38 34 37 39 42 36 34 41 49 50 52 54 55 55 55 55 55 55 55 56 56 57 58 59 60 60
43 44 43 48 36 38 33 39 41 33 34 39 38 26 25 24 22 21 20 20 23 26 30 29 26 26 25 32 32 30 32 27 26 34 30 28 29 28 26 27 25 26 26 27 30 39 28 28 37 32 32 29 26 24 23 22 20 17 22 26 35 42 41 40 44 43 43 41 40 46 50 50 53 54 55 55 56 55 55 55 55 55 55 56 57 58 59 60
42 43 43 47 46 44 47 37 36 27 24 36 26 29 29 30 25 26 26 25 27 28 30 27 29 26 23 25 35 30 30 31 29 27 32 31 28 29 27 27 22 24 26 26 29 29 23 26 40 38 29 29 29 29 24 24 21 23 21 26 26 32 45 46 47 48 48 47 49 50 49 50 54 55 55 55 55 55 54 54 54 54 54 55 56 57 57 56
50 47 47 43 38 40 46 39 32 33 28 28 26 31 36 28 27 29 27 28 29 30 32 29 30 30 28 24 24 27 31 34 34 28 29 30 26 29 24 24 26 25 26 26 28 30 28 25 36 35 23 24 30 30 27 25 19 21 23 25 27 28 40 44 44 47 45 46 48 48 48 49 53 54 54 54 54 54 53 53 53 53 53 54 53 53 54 54
50 50 50 44 37 43 37 40 32 28 25 28 31 31 32 27 29 28 25 25 26 31 32 30 32 26 27 25 26 26 23 29 31 28 25 26 28 32 30 24 24 27 27 28 33 27 30 29 27 32 25 25 29 33 28 22 19 21 23 24 27 31 33 40 46 50 49 49 48 46 47 51 54 54 53 53 53 53 53 52 52 52 52 52 52 52 53 54